Portada
METAR-TAF:

METAR-TAF

Aeroports :

Ceduna, Austràlia

latitud: 32-07-50S, longitud: 133-42-35E, altitud: 23 m

Observació

L'informe es va fer fa 1 hora i 22 minuts, a les 08:00 UTC
Vent 17 kt del Sud
Temperatura 20°C
Humitat 68%
Pressió 1016 hPa
Visibilitat 10 km o més

METAR: YCDU 170800Z AUTO 18017KT 9999 // NCD 20/14 Q1016

Hora: 19:52 (09:22 UTC)


TAF: manca

Observacions i pronòstics meteorològics de més de 4000 aeroports (METAR i TAF).

Les estacions disponibles són els punts grocs i vermells al mapa.

Posi el ratolí al punt desitjat per veure el nom de l'estació.

Feu clic per veure les observacions i els pronòstics meteorològics.

Per canviar el mapa: feu clic els botons verds amb una creu de color negre per apropar; al botó verd amb un guió per allunyar la imatge; o en les fletxes verdes per a mapes adjacents.


METAR-TAF: